Powrót do katalogu

STARLINK-31474

AktywnyŁącznośćVLEO
NORAD 59304·PAYLOAD·🇺🇸 United States

Wystrzelony Mar 24, 2024 z Cape Canaveral Space Force Station

Loading…

Następne Przeloty (najbliższe 24 godziny)

TLE

ŚwieżeSource: CelesTrak SupGP

Epoka: Sep 14, 2026, 22:42 UTC

1 59304C 24056J   26257.94631944  .00017304  00000+0  62672-3 0  2577
2 59304  43.0023 235.0558 0001218 260.6412 241.9502 15.27572130    13

Śledź STARLINK-31474 w czasie rzeczywistym z AllMySat

Download on the App Store